• info@maraton10kternium.com.ar
PUESTODORSALCATEGORIANOMBREAPELLIDOTIEMPO CHIPTIEMPO OFICIALLOCALIDADPROVINCIA
1121715-19 FNazarena Pisani 52:22.4 53:04.7San NicolasBuenos Aires
2 45915-19 FOrianaFrancisconi 55:38.0 56:04.5San Nicolás--
3 19615-19 FLucila CelesteLagorio Tossini 55:44.0 56:43.6San NicolasBs As
4 29815-19 FDanielaGallo 56:37.2 57:54.1San Nicolás--
5 64115-19 FLucilaPalena 57:33.8 58:05.7SnBs As
6 81715-19 FTamaraSilva 58:03.5 58:13.1San NicolásBuenos Aires
7 124315-19 FAgustinaMaese 59:01.6 1:00:22.8SnBs As
8 113415-19 FRocioDelgado 1:04:03.2 1:04:23.9San NicolásBuenos Aires
9 18715-19 FAgustinaValles 1:04:05.7 1:05:44.4SnBa
10 120115-19 FSalomeSposetti Ponzetti 1:05:44.2 1:05:49.3Villa ConstitucionSanta Fe
11 28415-19 FCandelaMolinet 1:05:04.2 1:06:31.4San Nicolás--
12 55715-19 FCandelariaCeccoli 1:05:36.5 1:07:02.5San Nicolas--
13 17715-19 FSofiaAguirre 1:07:26.2 1:07:57.1San NicolasBuenos Aires
14 68215-19 FSuarezCintia 1:17:28.3 1:19:01.4San NicolásBuenos Aires
         
1 110420-24 FFlorenciaRios 51:49.5 52:39.8  
2 54320-24 FBrendaSanchez Soldati 55:41.9 56:24.9San Nicolas--
3 21820-24 FStephanieCerbin 56:39.2 57:43.3 --
4 57520-24 FMicaelaPucheta 57:53.3 58:06.8San Nicolas--
5 60220-24 FSofiaColla 1:00:16.0 1:00:22.2San NicolasBuenos Aires
6 128020-24 FAntonellaPolverigiani 1:02:24.9 1:03:07.4SnBs As
7 112220-24 FCarolina GiseleCabrera 1:02:02.4 1:03:28.8San NicolasBs As
8 122820-24 FLeonelaAcosta 1:03:45.2 1:04:26.4San NicolasBs As
9 18320-24 FMaria CandelariaPerelli 1:04:05.4 1:04:59.9San NicolasBuenos Aires
10 81620-24 FBrendaSilva 1:04:17.8 1:05:04.3SnBa
11 75820-24 FSofiaTempo 1:04:53.6 1:05:11.3San NicolásBuenos Aires
12 108620-24 FFlorenciaVanni  1:05:35.0San NicolasBuenos Aires
13 55620-24 FCeccoliMaria Manuela 1:05:36.8 1:07:02.7San Nicolas--
14 27520-24 FSofia LaraAntonelli 1:06:03.0 1:07:02.9San Nicolas--
15 126020-24 FMartinaGress 1:07:31.9 1:08:17.7San NicolasBuenos Aires
16 74520-24 FMicaelaJulio 1:10:56.1 1:11:38.6San NicolasBuenos Aires
17 102620-24 FAntonellaLaghi 1:12:17.9 1:12:53.9ZárateBuenos Aires
18 13020-24 FCamila SoledadZarate 1:23:43.4 1:25:20.5San NicolásBuenos Aires
         
1 92025-29 FMaria LauraGarcete 37:24.5 37:24.7Ramos 
2 99725-29 FLaura VirginiaGonzalez 39:31.9 39:33.6  
3 2325-29 FLudmilaMartinez 39:47.0 39:52.7San NicolasBuenos Aires
4 131225-29 FYamilaAlarcon 39:59.8 40:02.5San Jeronimo NorteSanta Fe
5 83025-29 FCarolina VanesaPalacio 43:12.5 43:19.9ColonBuenos Aires
6 102125-29 FCarmenAnca 44:47.9 44:51.49 De JulioBuenos Aires
7 99525-29 FFissoreMarianela Anabel 48:14.8 48:17.5Empalme Villa ConstiSanta Fe
8 139725-29 FAnabelaNieto 49:46.7 49:47.2Pergamino 
9 78525-29 FJoanaCaballero 51:49.7 51:50.5SnBa
10 90725-29 FAnaclaraDalla Valle 52:15.2 52:35.4San Nicolas--
11 102525-29 FAgustinaBrucellaria 52:22.2 52:49.9San NicolasBuenos Aires
12 11625-29 FEmilceTurchet 53:04.9 53:08.8San NicolásBuenos Aires
13 132425-29 FMaria CarolinaSueta 53:23.2 53:44.4PergaminoBuenos Aires
14 118425-29 FAnabelaZucchella 53:50.4 54:29.3San NicolásBuenos Aires
15 139625-29 FMairaAndres 54:25.1 54:33.5Pergamino 
16 14025-29 FAlejandraSuasnabar 54:11.2 54:43.5San NicolásBuenos Aires
17 17425-29 FClaribel YoseliRabbia 54:58.9 55:06.9San NicolásBuenos Aires
18 85625-29 FEstefaniaTronchoni 55:43.3 56:20.2San NicolasBuenos Aires
19 78225-29 FLucianaForgues 55:04.6 56:34.3San NicolásBuenos Aires
20 33925-29 FMariaPippa 57:47.5 58:48.3San Nicolas--
21 17125-29 FAndreaLeiva 59:08.8 1:00:02.3SnBa
22 119725-29 FMariaDe Felipe 59:21.9 1:00:46.2  
23 60825-29 FRoci?oDurand 59:54.2 1:00:48.5San NicolásBuenos Aires
24 15325-29 FAna MariaVidela 59:48.4 1:00:52.2SnBa
25 27825-29 FCandela LuciaTureniec 1:00:09.3 1:01:11.7San Nicolás--
26 83625-29 FMarianelaCrochenci 1:01:29.7 1:01:39.31379 8aSanta Fe
27 83825-29 FGuillerminaCarrón 1:03:13.5 1:03:31.4PergaminoBS. AS.
28 135725-29 FMarianaSanchez 1:05:14.6 1:06:54.2PergaminoBuenos Aires
29 4325-29 FGiulianaPrina 1:05:21.3 1:07:00.5San NicolásBuenos Aires
30 123725-29 FElianaGonzalez 1:06:28.0 1:07:48.5Sn 
31 54725-29 FJessicaTolaba 1:06:40.8 1:08:10.6San Nicolas--
32 53925-29 FMaria LucreciaGodoy  1:08:24.1 --
33 14125-29 FLuciaMarconi 1:08:08.2 1:08:42.2San NicolásBuenos Aires
34 127425-29 FFernandezRosa 1:08:46.1 1:09:42.4--sn--bs As
35 24825-29 FYamilNacusse 1:09:14.8 1:10:41.4Rosario 
36 40425-29 FAndreaCorrea Mena 1:09:27.4 1:10:55.0San Nicolás--
37 110825-29 FDaiana RominaGomez 1:10:18.9 1:11:29.0San NicolasBuenos Aires
38 74225-29 FMarianaMorales 1:13:39.9 1:14:36.1SnBs As
39 137125-29 FAguedaGritti 1:14:16.8 1:15:48.7San NicolásBuenos Aires
40 128125-29 FEmeliMesa 1:17:32.0 1:18:51.5Villa Constitucion 
41 15025-29 FBrendaLirangi 1:25:39.0 1:27:20.3Sn--
         
1 133630-34 FMadianConta  39:23.0MataderosCiudad Autonoma De B
2 101730-34 FMariaAguilar 40:20.6 40:24.7JuninBuenos Aires
3 132530-34 FAnaAlonso 43:47.6 43:48.1PergaminoBuenos Aires
4 61630-34 FVanesaCaballero 48:02.3 48:09.9San NicolasBuenos Aires
5 76630-34 FAraceli SoledadBarea 48:09.6 48:23.0JuninBuenos Aires
6 110630-34 FCeciliaMagro 49:08.9 49:41.1San NicolasBuenos Aires
7 126430-34 FGiselaOlivetti 51:52.5 52:00.8Junin 
8 80930-34 FVeronica EstefaniaJimenez 52:56.0 53:08.9San NicolasBs As
9 110230-34 FJimenaQuevedo 53:11.1 53:31.1PavonSanta Fe
10 67930-34 FRomina SoledadTorella 53:51.8 53:55.9San NicolasBuenos Aires
11 102830-34 FNatalia AnaliaJulio 53:50.1 54:14.0San NicolasBuenos Aires
12 91530-34 FNataliaRapisardi 53:41.7 54:34.3Juninbsas
13 56630-34 FMarcelaGomez 54:46.9 54:57.4San Nicolas--
14 18030-34 FPerezJulia 53:55.6 54:57.9San NicolasBuenos Aires
15 109130-34 FMaría InésPuppo 54:31.5 55:39.9San NicolásBuenos Aires
16 139930-34 FCarla InesHerrera 55:52.8 56:10.6Colon 
17 90130-34 FMaria VirginiaBaita 55:12.4 56:12.7San Nicolás--
18 118330-34 FAntonela Del RosarioZucchella 56:16.3 56:54.3San NicolasBuenos Aires
19 127830-34 FEstefaniaDi Martino 56:34.6 57:19.1--sn--bs As
20 139530-34 FMicaelaBaroni 57:01.8 57:40.2Casilda 
21 11830-34 FMatiasBargas 58:18.5 58:41.3SnBa
22 86230-34 FJulieta BelenGerez 58:27.8 59:06.9--san Nicolas--buenos Aires
23 107630-34 FVanesa CarolinaBustos 58:21.8 59:41.1Villa ConstitucionSanta Fe
24 82230-34 FNataliaOrtiz 58:35.9 1:00:02.8SnBa
25 24330-34 FNataliaMolina 58:44.8 1:00:13.8San Nicolas--
26 104530-34 FCarolinaGomez 58:51.3 1:00:23.9San Nicolás--buenos Aires
27 54530-34 FVanesaTolaba 58:57.5 1:00:25.0San Nicolás--
28 115030-34 FRomina AndreaRuffini  1:00:47.5San NicolasBuenos Aires
29 91630-34 FPaulinaAzorin 59:20.9 1:00:50.7San Nicolas 
30 121830-34 FMarinaGarrido 59:33.4 1:00:58.1San Nicolas--
31 111330-34 FPaulaCampos 59:54.2 1:01:01.9San NicolasBuenos Aires
32 97630-34 FAndrea VerónicaPacheco 1:01:02.5 1:01:17.5San NicolásBs As
33 136730-34 FCyntiaCabral 1:00:38.4 1:01:19.7Villa ConstitucionSanta Fe
34 135530-34 FAna BelenLopez 1:00:21.2 1:02:00.3PergaminoBuenos Aires
35 136030-34 FPaula NatalíBéguelin 1:01:33.6 1:03:00.3San NicolásBuenos Aires
36 111230-34 FLucianaCampos 1:02:06.8 1:03:14.4San NicolasBuenos Aires
37 122930-34 FDaniela SoledadAcosta 1:02:54.5 1:03:35.5San NicolásBs As
38 86730-34 FIvanaTorres 1:02:42.8 1:04:07.5SnBa
39 117030-34 FNadiaVecoli 1:02:51.7 1:04:25.1SnBa
40 97030-34 FGabrielaGhiorzi 1:05:20.2 1:06:10.9San NicolásBuenos Aires
41 79930-34 FLuciana PaolaAlbanesi 1:04:49.2 1:06:15.3San Nicol?/td>Buenos Aires
42 79830-34 FEstefaniaMantelli 1:05:03.9 1:06:29.5San Nicol?/td>Buenos Aires
43 89630-34 FEvangelinaSanchez 1:05:26.1 1:06:55.3San Nicolas--
44 104730-34 FMarisolCeriotti 1:06:43.1 1:07:03.9PavonSanta Fe
45 80030-34 FAnalisBattellini 1:06:56.2 1:08:22.5San Nicol?/td>Buenos Aires
46 55230-34 FMaria FlorenciaRosalez 1:07:23.7 1:08:51.1San Nicolas--
47 126930-34 FCristinaRojas 1:10:00.4 1:10:27.4San NicolásBuenos Aires
48 54930-34 FPaula DanielaBallesteros 1:09:20.7 1:10:51.6San Nicolas--
49 129030-34 FAnabellaGalvan 1:10:50.3 1:11:59.0SnBs As
50 122630-34 FElianaVoltattorni 1:12:07.4 1:12:49.5San NicolasBs As
51 122730-34 FJavieraAcosta 1:12:07.2 1:12:49.9San NicolásBs As
52 104230-34 FMaria VictoriaGiustozzi 1:12:26.1 1:13:52.5San NicolasBsas
53 137030-34 FTeresitaGritti 1:14:16.7 1:15:48.9Sn 
54 60530-34 FGabriela SoledadSilva 1:16:02.5 1:16:42.9San Nicolas 
         
1 107935-39 FMariaOvejero 36:17.7 36:17.8Banda Rio SaliTuC.
2 85035-39 FMaria PiaMuntane  41:48.1San PedroBuenos Aires
3 120235-39 FMaria SoledadDangelo 42:45.0 42:47.2Villa Constituci?nSanta Fe
4 4835-39 FMaria FlorenciaArmoa 44:35.6 44:42.0San NicolasBuenos Aires
5 65835-39 FRominaSanchez 45:59.5 46:11.9JuniBuenos Aires
6 26235-39 FAndreaVazquez 46:38.9 46:44.7SN--
7 92835-39 FMaria LauraBadeto 49:04.7 49:04.7Americabs as
8 8035-39 FAndrea VeronicaGarassi 49:17.2 49:33.4San NicolasBuenos Aires
9 89035-39 FLorenaAzcoitia 50:23.8 50:37.0San NicolasBuenos Aires
10 116735-39 FMarinaPalombo 50:49.2 51:22.0SnBa
11 76335-39 FGabrielaVillordo 51:39.4 51:49.1San NicolasBuenos Aires
12 57835-39 FCarinaBottazzi 51:31.8 51:59.6San Nicolás--
13 51735-39 FGiselleRiera 51:58.5 52:25.8 --
14 19835-39 FMaricelGonzalez 52:26.4 52:39.4SnBs As
15 14835-39 FKarina VanesaRiartes 54:14.2 54:26.4San NicolasBuenos Aires
16 47935-39 FRominaQuercetti 54:25.3 54:32.2San Nicolas--
17 123635-39 FCintiaCampos 54:28.5 54:36.2San NicolásBuenos Aires
18 89535-39 FMicaelaTagliani 54:42.2 55:02.4PergaminoBuenos Aires
19 115835-39 FElizabethAguanta 53:52.5 55:06.8San NicolasBuenos Aires
20 72535-39 FPaolaCaraballo 55:02.9 55:32.4PergaminoBuenos Aires
21 87335-39 FValeriaAzzaretti 54:34.4 55:35.7San NicolasBuenos Aires
22 126635-39 FValeriaFresart 54:29.2 55:54.4San NicolasBs As
23 85835-39 FFlavia VanesaBecaccesi 55:29.3 56:07.2San Nicolás--
24 85935-39 FVictoriaJaramillo 56:00.7 56:15.3SnBa
25 46535-39 FSabrinaDiaz  56:43.5San Nicolas--
26 13435-39 FMelinaMonasterolo 57:20.4 58:15.9San NicolásBuenos Aires
27 67635-39 FBettianaBianchi 58:05.7 58:16.6San NicolasBuenos Aires
28 124935-39 FVirginiaMauro 57:36.0 58:34.4Sn 
29 63635-39 FBaldarenasCarolina 58:09.6 58:47.1San NicolásBuenos Aires
30 140035-39 FMaria EugeniaZatti 57:59.1 58:49.1Pergamino 
31 128335-39 FEugeniaLopez 59:21.5 1:00:34.5SnBs As
32 40335-39 FEcheverriaJuan Pablo 59:17.1 1:00:44.9San Nicolas--
33 7035-39 FEricaGiovanetti 1:00:09.7 1:00:56.8SnBs As
34 97535-39 FValeria JorgelinaPacheco 1:01:02.0 1:01:17.0San NicolásBs As
35 117835-39 FVaninaBarrios 1:02:04.5 1:02:22.6San NicolásBuenos Aires
36 105235-39 FVirginiaPareja Duarte 1:01:08.1 1:02:33.9Bell VilleCordoba
37 101435-39 FMaria De Los AngelesBottazzi 1:02:20.2 1:03:05.5ZarateBs As
38 120435-39 FAcostaMarcela 1:03:05.8 1:03:17.1SnBa
39 112435-39 FDanielaHerrera 1:03:23.9 1:03:47.6San NicolasBuenos Aires
40 115235-39 FVictoriaPerez  1:03:51.9SnBa
41 9335-39 FMariela BelenGuerrero 1:03:00.4 1:03:54.1San NicolasBuenos Aires
42 60635-39 FValeria SabrinaDellavedova 1:03:05.7 1:04:03.8La EmiliaBuenos Aires
43 22835-39 FCarolina AndreaFigueroa 1:02:43.2 1:04:13.4San Nicolás--
44 96735-39 FMarielaGhiorzi 1:04:16.3 1:05:07.4San NicolásBuenos Aires
45 112735-39 FDanielaConsoletti 1:05:27.1 1:07:01.4San NicolasBs Aires
46 128435-39 FMercedesBalaguer 1:08:35.7 1:09:49.7SnBs As
47 78135-39 FNancy SoledadGonzalez 1:08:21.8 1:09:55.9San NicolasBuenos Aires
48 47735-39 FElena VictoriaLazzari 1:08:53.4 1:10:05.6San Nicolas--
49 8635-39 FKarinaSalinas 1:09:19.1 1:10:23.1SnBa
50 87035-39 FBelenCristofani 1:09:22.1 1:10:49.8SnBa
51 107035-39 FNatalia RitaSerravalle 1:10:00.6 1:11:33.6FunesSanta Fe
52 137835-39 FValeriaStricker 1:11:39.1 1:12:01.5Capital 
53 57135-39 FAlejandraOviedo 1:11:53.5 1:13:14.1Villa Ramallo--
54 62135-39 FElisabethSoria 1:13:32.9 1:13:45.7San NicolásBs As
55 60435-39 FNataliaTorino 1:17:48.2 1:18:27.8SnBa
         
1 3340-44 FAndreaLazzarini 40:07.6 40:10.0Santa FeSanta Fe
2 22140-44 FVeronicaGonzalez 43:24.3 44:00.0 --
3 125340-44 FCarinaRodriguez 44:23.7 44:34.3Rosario 
4 69740-44 FMainzLorena 47:12.4 47:18.9San NicolásBuenos Aires
5 91740-44 FMaritzaUruzula 48:00.8 48:06.0Pergamino 
6 24940-44 FMariaAlcaraz 48:15.1 48:19.9Sn 
7 13540-44 FSilvinaSanchez 50:30.5 51:01.9San NicolasBuenos Aires
8 134340-44 FCynthiaWalton 51:31.8 51:45.6JunínBuenos Aires
9 104340-44 FSilvina RoxanaZelaya 51:22.4 52:03.8PergaminoBuenos Aires
10 89940-44 FSilvia VirginiaLemos 54:12.1 55:29.0RosarioSanta Fe
11 95640-44 FNora EdithHillebrand 56:48.4 57:51.6General LagosSanta Fe
12 64040-44 FBarbaraPetrella 57:42.6 58:15.0San NicolásBuenos Aires
13 126240-44 FBeatrizRodriguez 58:06.3 58:32.4San NicolasBS AS
14 10540-44 FSilviaUriz 59:34.2 59:58.9San NicolásBuenos Aires
15 107540-44 FGabrielaCoronel 59:14.3 1:00:34.1EmpalmeSta Fe
16 61040-44 FNataliaAcuña 1:00:09.5 1:01:03.8RosarioSanta Fe
17 17540-44 FAylenPodesta Castaño 1:01:21.3 1:01:45.5SnBs As
18 85440-44 FMaria JoseSalafica 1:01:59.2 1:02:37.7San NicolasBuenos Aires
19 95940-44 FMonicaMujica 1:02:10.8 1:03:13.2PergaminoBuenos Aires
20 13840-44 FJaquelinaCabrera 1:03:47.1 1:04:41.2SnBa
21 131840-44 FLorenaFernandez 1:04:03.1 1:04:47.1San NicolasBuenos Aires
22 81240-44 FYamilaZabala 1:04:18.0 1:05:45.9San NicolásBuenos Aires
23 100240-44 FMa De Los AngelesRosettani 1:05:40.0 1:06:21.4San NicolasBuenos Aires
24 12740-44 FCarolinaBouvier 1:05:47.3 1:07:06.2Villa ConstitucionSanta Fe
25 9740-44 FMaria LauraMaggi 1:09:08.4 1:10:22.8San NicolasBuenos Aires
26 97740-44 FMaría IgnaciaMenna 1:10:36.5 1:10:52.4San NicolásBs As
27 79040-44 FBeatrizAguanta Silva 1:10:52.5 1:12:08.5San NicolásBuenos Aires
28 71140-44 FPaolaPazzelli 1:11:31.0 1:13:12.6CabaCaba
29 24740-44 FVeronicaGonzalez 1:23:39.8 1:24:30.1San Nicolas--
30 120540-44 FVerónicaAcosta 1:24:02.5 1:24:53.7San NicolasBuenos Aires
         
1 60145-49 FKoskiniotisDafne 44:54.1 45:00.0San NicolasBuenos Aires
2 23245-49 FSilvanaAlcaraz 49:44.9 49:50.2San Nicolás--
3 18945-49 FMari?a VictoriaLucchesi 50:29.6 50:58.0San NicolásBuenos Aires
4 120945-49 FMyriamBanuls 50:45.6 52:02.0PergaminoBuenos Aires
5 60745-49 FGracielaRomero 52:28.1 52:47.1SnBa
6 103445-49 FOlgaIbañez 52:53.4 52:56.4EscobarBuenos Aires
7 33645-49 FVeronicaRodriguez 52:22.5 53:01.9San Nicolas--
8 136345-49 FClaudia MarcelaBaroni 52:55.9 53:14.0ColonBuenos Aires
9 4745-49 FPatriciaOrellano 53:01.6 53:16.9Juninbs as
10 6845-49 FVaninaToppazzini 54:59.6 55:21.1PergaminoBuenos Aires
11 98045-49 FVerónicaPijuan 54:37.0 56:08.3San NicolásBuenos Aires
12 138045-49 FLauraJalil 56:01.4 56:49.9Pergamino 
13 76145-49 FFabiana AndreaFajoli 56:27.0 58:02.4San NicolasBuenos Aires
14 111545-49 FCeciliaRossi 58:11.1 59:25.9San NicolasBuenos Aires
15 29245-49 FAnaliaMu?oz 58:13.7 59:28.4San Nicolás--
16 5445-49 FDoloresLopez Carvajal 58:49.0 59:37.3San NicolásBuenos Aires
17 94945-49 FAndreaCragnaz 58:22.2 59:42.4San Nicolás--
18 114445-49 FVeronicaFazi 59:03.3 1:00:10.3San Nicolasbs as
19 106845-49 FKarinaInsua 59:41.6 1:00:14.2San NicolasBuenos Aires
20 26345-49 FMonica SusanaGómez 59:19.8 1:00:42.5San NicolásBuenos Aires
2190945-49 FMariaAyala 1:00:33.4 1:00:44.2La EmiliaBuenos Aires
22 103145-49 FMaria EugeniaGironacci 1:00:47.3 1:01:36.7San NicolasBuenos Aires
23 82645-49 FSilviaSunino 1:00:32.8 1:02:15.1San NicolasBuenos Aires
24 17945-49 FGriseldaPonce 1:01:03.5 1:02:28.7Sn 
25 134145-49 FSilvia LauraMoro 1:02:17.7 1:02:35.9RosarioSanta Fe
26 55545-49 FKarinaMuller 1:02:45.2 1:04:19.3San Nicolás--
27 19145-49 FSusanaDovis 1:06:06.6 1:06:46.9SnBa
28 67145-49 FSusana RaquelAncarani 1:07:11.0 1:08:20.2San NicolasBuenos Aires
29 105345-49 FVeroninaDalmasso 1:08:16.8 1:09:30.6Villa ConstituciónSanta Fe
30 7845-49 FMaria CandelaSormani 1:09:36.6 1:10:29.5San NicolasBuenos Aires
31 139245-49 FMarcelaMedina 1:12:36.2 1:14:06.8Pergamino 
32 105945-49 FMa AlejandraCucchi  1:14:38.0SnBa
33 81545-49 FClaudiaCostas 1:14:20.5 1:15:34.9San NicolasBuenos Aires
34 12045-49 FFany GabrielaRomano 1:19:51.6 1:20:50.6San NicolasBs As
35 15445-49 FMariaRuegsegger 1:21:03.4 1:21:13.4San NicolásBuenos Aires
         
1 4050-54 FNoraRasetto 44:45.8 44:51.5San NicolasBuenos Aires
2 76950-54 FMartaMartinez 48:54.3 49:09.6JuninBuenos Aires
3 78850-54 FSilviaSetti 48:39.5 49:29.5San NicolasBs As
4 55850-54 FEmilceMontero 49:27.6 49:39.1Villa Constitucion--
5 46650-54 FElviraRuhl 53:28.0 53:56.5San Nicolas--
6 107150-54 FAndrea FabianaMuñoz 53:56.2 54:22.2RosarioSanta Fe
7 30050-54 FCecilia LilianaMontivero 54:17.7 54:42.9San Nicolas--
8 96950-54 FGriseldaValdez 57:40.9 58:08.0San NicolasBuenos Aires
9 83550-54 FRoxana VivianaGuelves 58:00.4 58:56.9RosarioSanta Fe
10 15550-54 FAliciaGasparro 58:54.7 59:59.6San NicolasBs As
11 68150-54 FCortinaMarta Elena 59:05.2 1:00:39.0San NicolasBuenos Aires
12 82350-54 FZulemaAhumada 1:01:11.8 1:02:54.7San NicolasBuenos Aires
13 85250-54 FMaria De Los AngelesCivitillo 1:03:33.9 1:04:11.6SnBa
14 133950-54 FDanielaMendoza 1:03:25.5 1:05:07.2San NicolásBuenos Aires
15 128650-54 FSilvia BeatrizDe Cara 1:04:04.0 1:05:15.7San NicolasBuenos Aires
16 128550-54 FStella MarisIturralde 1:04:04.2 1:05:15.9San NicolasBuenos Aires
17 66650-54 FPatriciaBasaldella 1:06:23.1 1:06:36.6San NicolásBuenos Aires
18 131650-54 FMonica BeatrizArmoa 1:06:32.1 1:06:53.6Villa RamalloBuenos Aires
19 129350-54 FSacconiAna Marta 1:07:26.2 1:07:34.1PergaminoBuenos Aires
20 9450-54 FSilvanaComini 1:07:54.0 1:09:12.3ColegialesCiudad Autonoma De B
21 21150-54 FLauraSoldati 1:08:51.1 1:09:59.4San Nicolas--
22 133450-54 FMarisaEsmail 1:09:39.3 1:10:37.3Granadero BaigorriaSanta Fe
23 101950-54 FMaria MarcelaReynoso 1:10:09.3 1:11:40.0PergaminoBuenos Aires
24 101350-54 FSilviaAlcorta 1:13:59.4 1:15:40.7SnBa
25 116150-54 FTeresa AngelicaRecio 1:14:39.2 1:15:58.4San NicolasBuenos Aires
         
1 17055-59 FMirta LujanAspiazu 50:41.2 50:48.9San NicolasBuenos Aires
2 100855-59 FLuqueSandra 55:29.4 55:39.8San NicolasBuenos Aires
3 16155-59 FSilviaCotarelli 54:48.0 55:42.8San NicolasBuenos Aires
4 16955-59 FMiguel AngelSosa 56:41.9 57:23.5  
5 16555-59 FLilianaCassin 1:04:17.3 1:04:46.1PergaminoBuenos Aires
6 64955-59 FSilviaCornejo 1:06:22.6 1:06:36.0San Nicolas 
7 79755-59 FNormaLeiva De Sosa 1:07:08.7 1:08:06.0San NicolasBuenos Aires
8 17355-59 FMaria Del CarmenMonzo 1:07:42.0 1:08:21.9--ituzaingo--buenos Aires
9 124855-59 FZunilda RosaPoblete 1:09:11.1 1:10:22.0San NicolásBS.AS.
10 84655-59 FMonicaMangado 1:12:06.4 1:12:37.5PergaminoBuenos Aires
         
1 65460-64 FJosefaVillordo 56:09.0 56:18.3San NicolasBuenos Aires
2 2760-64 FMaria TeresaTortul 1:02:37.4 1:03:28.1San NicolásBuenos Aires
3 70360-64 FAna TeresaCybart 1:04:26.8 1:06:12.2-san Nicolas--bs-aS.-
4 122560-64 FGraciela Del LujanBalmaceda 1:06:19.3 1:06:35.7PergaminoBuenos Aires
5 111860-64 FMaria CristinaLedesma 1:23:20.1 1:24:26.5San NicolasBuenos Aires
6 63160-64 FAdrianaRamirez  1:36:29.0SnBs As
         
1 5665-69 FSusanaGalante 1:06:19.8 1:06:55.7JuninBuenos Aires
         
1 60975-79 FMartaSarco 56:56.3 56:56.3RosarioSanta Fe